LUCH (OLYMP) DEB, 67745

Orbit data source: Space-Track

LUCH (OLYMP) DEB, 67745 is space debris in GEO originally from a launch on Sat, 27 Sep 2014 UTC launched from the Tyuratam Missile And Space Complex (TTMTR). Debris objects in space refer to the collection of defunct objects orbiting the Earth. Examples of debris include non-operational satellites, rocket bodies, and fragments generated from explosions, collisions, or faulty payload assembly.

Not visible in the next 10 days
Identifier
67745, 2014-058D
Orbit
GEO
Country
Flag of CISCIS
Related business
Manufacturer
Resehetnev ISS
Mission
Spacecraft
Bus & Motor
Unknown
Mass
Unknown
Launch date (UTC)
2014-09-27 (12 years ago)
Launch vehicle
Unknown
Launch site
Tyuratam Missile And Space Complex (TTMTR)
Object type
Payload
Rocket body
Debris
Shape & HBR
Unknown shape, 1.1 m
Radar Cross Section
RCS unknown

Expand to show TLE details & history
Last TLE update: 2 days ago

TLE from 2 days ago
0 LUCH (OLYMP) DEB
1 67745U 14058D   26206.42313097 -.00000227  00000-0  00000-0 0  9994
2 67745   2.5524  87.5705 1884520  37.2094 334.3121  0.98081836  1724
Epoch: 2026-07-25T10:09Z
TLE epoch observation values (Epoch: 2026-07-25T10:09:18.515Z)
Latitude
Longitude
-8.14319°
Altitude
29,482.325 km
Speed
3.594 km/s
True Right ascension
05h 49m 16s
True Declination
0° 00' 00"
Sunlit
Object was in daylight at epoch
Visualization orbit readout
Latitude
Unknown
Longitude
Unknown
Altitude
Unknown
Speed
Unknown
Apparent Right ascension
Unknown
Apparent Declination
Unknown
Sunlit
N/A
Visualization observer readout
Local Sidereal Time
01:17:26
Azimuth
Unknown
Elevation
Unknown
Doppler factor
Unknown
Orbital elements
Apogee altitude
44,477.101 km
Perigee altitude
28,348.942 km
Semi-major axis
42,791.159 km
Eccentricity
0.18845
Inclination
2.5524°
RAAN
87.5705°
Arg. of periapsis
37.2094°
True anomaly
322.54882°
Mean anomaly
334.3121°
Eccentric anomaly
328.70309°
Mean motion
0.2452 °/min
Orbital period
1,468.22 mins
BSTAR
0
Loading maneuver chart data...
Computing Atmospheric mass density...
Loading historical data...
Loading historical data...
Loading historical data...
Loading historical data...
Loading historical data...
Loading historical data...
Loading historical data...
Other satellites on launch #58 in the year 2014 (2014-09-27 UTC)

Documentation

Showing up to 5 results
|